Time,TemperatureF,DewpointF,PressureIn,WindDirection,WindDirectionDegrees,WindSpeedMPH,WindSpeedGustMPH,Humidity,HourlyPrecipIn,Conditions,Clouds,dailyrainin,SoftwareType,DateUTC
2013-07-18 04:52:00,53.0,51.0,-100.00,North,-999,0.0,-999.0,94,-99.99,,,2.18,,2013-07-18 10:52:00,
2013-07-18 05:01:00,53.0,51.0,-100.00,North,-999,0.0,-999.0,94,-99.99,,,2.18,,2013-07-18 11:01:00,
2013-07-18 05:11:00,53.0,51.0,-100.00,North,-999,0.0,-999.0,94,-99.99,,,2.18,,2013-07-18 11:11:00,
2013-07-18 06:42:00,52.0,51.0,-100.00,North,-999,0.0,-999.0,95,0.00,,,2.18,,2013-07-18 12:42:00,
2013-07-18 06:52:00,52.0,51.0,-100.00,North,-999,0.0,-999.0,95,0.00,,,2.18,,2013-07-18 12:52:00,
2013-07-18 07:01:00,52.0,51.0,-100.00,North,-999,0.0,-999.0,95,0.00,,,2.18,,2013-07-18 13:01:00,
2013-07-18 07:11:00,52.0,51.0,-100.00,North,-999,0.0,-999.0,95,0.00,,,2.18,,2013-07-18 13:11:00,
2013-07-18 07:53:00,54.0,52.0,-100.00,North,-999,0.0,-999.0,93,0.00,,,2.18,,2013-07-18 13:53:00,
2013-07-18 08:02:00,54.0,52.0,-100.00,North,-999,0.0,-999.0,93,0.00,,,2.18,,2013-07-18 14:02:00,
2013-07-18 08:11:00,54.0,52.0,-100.00,North,-999,0.0,-999.0,93,0.00,,,2.18,,2013-07-18 14:11:00,
2013-07-18 08:53:00,55.0,53.0,-100.00,North,-999,0.0,-999.0,94,0.00,,,2.18,,2013-07-18 14:53:00,
2013-07-18 09:01:00,55.0,53.0,-100.00,North,-999,0.0,-999.0,94,0.00,,,2.18,,2013-07-18 15:01:00,
2013-07-18 09:53:00,63.0,55.0,-100.00,North,-999,0.0,-999.0,75,-99.99,,,-99.99,,2013-07-18 15:53:00,
2013-07-18 10:01:00,63.0,55.0,-100.00,North,-999,0.0,-999.0,75,-99.99,,,-99.99,,2013-07-18 16:01:00,
2013-07-18 10:11:00,63.0,55.0,-100.00,North,-999,0.0,-999.0,75,-99.99,,,-99.99,,2013-07-18 16:11:00,
2013-07-18 10:42:00,67.0,59.0,-100.00,North,-999,0.0,-999.0,75,0.01,,,2.19,,2013-07-18 16:42:00,
2013-07-18 10:52:00,67.0,59.0,-100.00,North,-999,0.0,-999.0,75,0.01,,,2.19,,2013-07-18 16:52:00,
2013-07-18 11:02:00,67.0,59.0,-100.00,North,-999,0.0,-999.0,75,0.01,,,2.19,,2013-07-18 17:02:00,
2013-07-18 11:11:00,67.0,59.0,-100.00,North,-999,0.0,-999.0,75,0.01,,,2.19,,2013-07-18 17:11:00,
2013-07-18 11:43:00,71.0,62.0,-100.00,North,-999,0.0,-999.0,72,0.01,,,2.20,,2013-07-18 17:43:00,
2013-07-18 11:52:00,71.0,62.0,-100.00,North,-999,0.0,-999.0,72,0.01,,,2.20,,2013-07-18 17:52:00,
2013-07-18 12:01:00,71.0,62.0,-100.00,North,-999,0.0,-999.0,72,0.01,,,2.20,,2013-07-18 18:01:00,
2013-07-18 12:11:00,71.0,62.0,-100.00,North,-999,0.0,-999.0,72,0.01,,,2.20,,2013-07-18 18:11:00,
2013-07-18 12:43:00,75.0,61.0,-100.00,North,-999,0.0,-999.0,61,0.00,,,2.20,,2013-07-18 18:43:00,
2013-07-18 12:52:00,75.0,61.0,-100.00,North,-999,0.0,-999.0,61,0.00,,,2.20,,2013-07-18 18:52:00,
2013-07-18 13:01:00,75.0,61.0,-100.00,North,-999,0.0,-999.0,61,0.00,,,2.20,,2013-07-18 19:01:00,
2013-07-18 13:11:00,75.0,61.0,-100.00,North,-999,0.0,-999.0,61,0.00,,,2.20,,2013-07-18 19:11:00,
2013-07-18 13:53:00,79.0,54.0,-100.00,North,-999,0.0,-999.0,42,0.00,,,2.20,,2013-07-18 19:53:00,
2013-07-18 14:01:00,79.0,54.0,-100.00,North,-999,0.0,-999.0,42,0.00,,,2.20,,2013-07-18 20:01:00,
2013-07-18 14:11:00,79.0,54.0,-100.00,North,-999,0.0,-999.0,42,0.00,,,2.20,,2013-07-18 20:11:00,
2013-07-18 14:43:00,83.0,59.0,-100.00,North,-999,0.0,-999.0,44,0.00,,,2.20,,2013-07-18 20:43:00,
2013-07-18 14:52:00,83.0,59.0,-100.00,North,-999,0.0,-999.0,44,0.00,,,2.20,,2013-07-18 20:52:00,
2013-07-18 15:52:00,86.0,46.0,-100.00,North,-999,0.0,-999.0,25,0.00,,,2.20,,2013-07-18 21:52:00,
2013-07-18 16:01:00,86.0,46.0,-100.00,North,-999,0.0,-999.0,25,0.00,,,2.20,,2013-07-18 22:01:00,
2013-07-18 16:11:00,86.0,46.0,-100.00,North,-999,0.0,-999.0,25,0.00,,,2.20,,2013-07-18 22:11:00,
2013-07-18 16:43:00,87.0,44.0,-100.00,North,-999,0.0,-999.0,22,0.00,,,2.20,,2013-07-18 22:43:00,
2013-07-18 16:53:00,87.0,44.0,-100.00,North,-999,0.0,-999.0,22,0.00,,,2.20,,2013-07-18 22:53:00,
2013-07-18 17:02:00,87.0,44.0,-100.00,North,-999,0.0,-999.0,22,0.00,,,2.20,,2013-07-18 23:02:00,
2013-07-18 17:11:00,87.0,44.0,-100.00,North,-999,0.0,-999.0,22,0.00,,,2.20,,2013-07-18 23:11:00,
2013-07-18 17:42:00,88.0,48.0,-100.00,North,-999,0.0,-999.0,25,0.00,,,-99.99,,2013-07-18 23:42:00,
2013-07-18 17:52:00,88.0,48.0,-100.00,North,-999,0.0,-999.0,25,0.00,,,-99.99,,2013-07-18 23:52:00,
2013-07-18 18:01:00,88.0,48.0,-100.00,North,-999,0.0,-999.0,25,0.00,,,-99.99,,2013-07-19 00:01:00,
2013-07-18 18:11:00,88.0,48.0,-100.00,North,-999,0.0,-999.0,25,0.00,,,-99.99,,2013-07-19 00:11:00,
2013-07-18 18:52:00,85.0,53.0,-100.00,North,-999,0.0,-999.0,34,0.00,,,-99.99,,2013-07-19 00:52:00,
2013-07-18 19:01:00,85.0,53.0,-100.00,North,-999,0.0,-999.0,34,0.00,,,-99.99,,2013-07-19 01:01:00,
2013-07-18 19:42:00,80.0,49.0,-100.00,North,-999,0.0,-999.0,34,0.00,,,1.79,,2013-07-19 01:42:00,
2013-07-18 19:52:00,80.0,49.0,-100.00,North,-999,0.0,-999.0,34,0.00,,,1.79,,2013-07-19 01:52:00,
2013-07-18 20:01:00,80.0,49.0,-100.00,North,-999,0.0,-999.0,34,0.00,,,1.79,,2013-07-19 02:01:00,
2013-07-18 20:11:00,80.0,49.0,-100.00,North,-999,0.0,-999.0,34,0.00,,,1.79,,2013-07-19 02:11:00,
2013-07-18 20:52:00,75.0,55.0,-100.00,North,-999,0.0,-999.0,49,0.00,,,0.88,,2013-07-19 02:52:00,
2013-07-18 21:01:00,75.0,55.0,-100.00,North,-999,0.0,-999.0,49,0.00,,,0.88,,2013-07-19 03:01:00,
2013-07-18 21:11:00,75.0,55.0,-100.00,North,-999,0.0,-999.0,49,0.00,,,0.88,,2013-07-19 03:11:00,
2013-07-18 21:52:00,70.0,57.0,-100.00,North,-999,0.0,-999.0,63,0.00,,,0.03,,2013-07-19 03:52:00,
2013-07-18 22:02:00,70.0,57.0,-100.00,North,-999,0.0,-999.0,63,0.00,,,0.03,,2013-07-19 04:02:00,
2013-07-18 22:11:00,70.0,57.0,-100.00,North,-999,0.0,-999.0,63,0.00,,,0.03,,2013-07-19 04:11:00,
2013-07-18 22:44:00,67.0,48.0,-100.00,North,-999,0.0,-999.0,50,0.00,,,0.03,,2013-07-19 04:44:00,
2013-07-18 22:52:00,67.0,48.0,-100.00,North,-999,0.0,-999.0,50,0.00,,,0.03,,2013-07-19 04:52:00,
2013-07-18 23:02:00,67.0,48.0,-100.00,North,-999,0.0,-999.0,50,0.00,,,0.03,,2013-07-19 05:02:00,
2013-07-18 23:11:00,67.0,48.0,-100.00,North,-999,0.0,-999.0,50,0.00,,,0.03,,2013-07-19 05:11:00,
2013-07-18 23:53:00,62.0,51.0,-100.00,North,-999,0.0,-999.0,66,0.00,,,-99.99,,2013-07-19 05:53:00,